CW8081 Weather Reports


time (UTC)temp
F
wind
direction
speed
knots
gust
knots
rain 1hr
in
rain 24hr
in
rain mn
in
humidity
%
barometer
mb
20260509233105 60 0 0.0 0.0 0.00 0.00 0.00 89 1014.9
20260509223605 61 0 0.0 0.0 0.00 0.00 0.00 89 1015.0
20260509223105 62 0 0.0 0.0 0.00 0.00 0.00 89 1015.0
20260509221604 62 0 0.0 0.0 0.00 0.00 0.00 89 1015.0
20260509221105 62 0 0.0 0.0 0.00 0.00 0.00 89 1015.1
20260509220605 62 0 0.0 0.0 0.00 0.00 0.00 89 1015.1
20260509220105 62 0 0.0 0.0 0.00 0.00 0.00 89 1015.1
20260509214605 62 0 0.0 0.0 0.00 0.00 0.00 88 1015.1
20260509214105 62 0 0.0 0.0 0.00 0.00 0.00 88 1015.1
20260509211605 62 0 0.0 0.0 0.00 0.00 0.00 87 1015.1
20260509210105 62 0 0.0 0.0 0.00 0.00 0.00 87 1014.9
20260509204605 63 0 0.0 0.0 0.00 0.00 0.00 87 1014.9
20260509204105 63 0 0.0 0.0 0.00 0.00 0.00 87 1014.9
20260509203605 63 238 0.0 0.0 0.00 0.00 0.00 87 1014.9
20260509201604 63 0 0.0 0.0 0.00 0.00 0.00 86 1014.7
20260509193604 65 0 0.0 0.0 0.00 0.00 0.00 85 1014.7
20260509191105 65 0 0.0 0.0 0.00 0.00 0.00 84 1014.5
20260509184105 66 0 0.0 0.0 0.00 0.00 0.00 83 1014.5
20260509183104 66 0 0.0 0.0 0.00 0.00 0.00 82 1013.5
20260509181604 67 0 0.0 0.0 0.00 0.00 0.00 81 1013.5
20260509181104 67 0 0.0 0.0 0.00 0.00 0.00 81 1013.5
20260509180605 67 0 0.0 0.0 0.00 0.00 0.00 81 1013.5
20260509180105 67 0 0.0 0.0 0.00 0.00 0.00 81 1013.5
20260509174604 67 0 0.0 0.0 0.00 0.00 0.00 81 1013.5
20260509174104 67 0 0.0 0.0 0.00 0.00 0.00 81 1013.5
20260509173605 67 0 0.0 0.0 0.00 0.00 0.00 81 1013.4
20260509164104 67 0 0.0 0.0 0.00 0.00 0.00 83 1013.5
20260509163105 67 0 0.0 0.0 0.00 0.00 0.00 83 1013.5
20260509160605 67 0 0.0 0.0 0.00 0.00 0.00 84 1013.5
20260509154604 67 0 0.0 0.0 0.00 0.01 0.00 84 1013.1
20260509153105 68 0 0.0 0.0 0.00 0.01 0.00 84 1013.1
20260509151604 68 0 0.0 0.0 0.00 0.01 0.00 84 1013.1
20260509151104 68 356 0.0 0.0 0.00 0.01 0.00 84 1013.1
20260509150605 68 0 0.0 0.0 0.00 0.01 0.00 84 1013.1
20260509150105 68 0 0.0 0.0 0.00 0.01 0.00 84 1013.1
20260509144605 68 0 0.0 0.0 0.00 0.01 0.00 84 1013.1
20260509143604 69 0 0.0 0.0 0.00 0.01 0.00 84 1013.1
20260509141104 68 0 0.0 0.0 0.00 0.01 0.00 82 1013.1
20260509134605 69 358 0.0 0.0 0.00 0.01 0.00 80 1013.3
20260509134105 69 0 0.0 0.0 0.00 0.01 0.00 79 1013.3
20260509133604 69 0 0.0 0.0 0.00 0.01 0.00 79 1013.3
20260509131604 69 0 0.0 0.0 0.00 0.01 0.00 77 1013.3
20260509131104 69 0 0.0 0.0 0.00 0.01 0.00 77 1013.3
20260509124605 69 0 0.0 0.0 0.00 0.01 0.00 76 1013.3
20260509120605 70 0 0.0 0.0 0.00 0.01 0.00 75 1013.3
20260509120105 70 0 0.0 0.0 0.00 0.01 0.00 74 1013.3
20260509113604 70 0 0.0 0.0 0.00 0.01 0.00 75 1013.6
20260509103604 68 0 0.0 0.0 0.00 0.02 0.00 72 1014.0
20260509100605 67 0 0.0 0.0 0.00 0.02 0.00 72 1014.3
20260509090605 66 0 0.0 0.0 0.00 0.02 0.00 78 1014.4
20260509084604 66 0 0.0 0.0 0.00 0.02 0.00 81 1014.5
20260509084104 66 0 0.0 0.0 0.00 0.02 0.00 82 1014.5
20260509083104 66 0 0.0 0.0 0.00 0.02 0.00 83 1014.7
20260509081604 66 0 0.0 0.0 0.00 0.02 0.00 88 1014.7
20260509081104 65 0 0.0 0.0 0.00 0.02 0.00 89 1014.7
20260509080105 63 345 0.0 0.0 0.00 0.02 0.00 90 1014.7
20260509074605 62 298 0.0 0.0 0.00 0.02 0.00 91 1014.8
20260509074105 62 337 0.0 0.0 0.00 0.02 0.00 91 1014.8
20260509073605 62 296 0.0 0.0 0.00 0.02 0.00 91 1014.8
20260509073105 62 297 0.0 0.0 0.00 0.02 0.00 92 1014.8
20260509070605 61 0 0.0 0.0 0.00 0.02 0.00 92 1014.9
20260509070104 61 282 0.0 0.0 0.00 0.02 0.00 92 1014.9
20260509063105 60 0 0.0 0.0 0.00 0.02 0.00 92 1014.9
20260509060105 60 0 0.0 0.0 0.00 0.02 0.00 92 1014.9
20260509054605 59 0 0.0 0.0 0.00 0.02 0.00 92 1014.7
20260509053105 59 355 0.0 0.0 0.00 0.02 0.00 92 1014.7
20260509051605 59 0 0.0 0.0 0.00 0.02 0.00 92 1014.7
20260509050605 59 339 0.0 0.0 0.00 0.02 0.00 92 1014.5
20260509050105 59 0 0.0 0.0 0.00 0.02 0.00 92 1014.5
20260509044104 59 0 0.0 0.0 0.00 0.02 0.00 92 1014.3
20260509043604 58 0 0.0 0.0 0.00 0.02 0.00 92 1014.3
20260509041604 58 0 0.0 0.0 0.00 0.02 0.00 92 1014.3
20260509040605 58 0 0.0 0.0 0.00 0.02 0.00 92 1014.4
20260509034605 59 0 0.0 0.0 0.00 0.02 0.00 91 1014.4
20260509034105 59 0 0.0 0.0 0.00 0.02 0.00 92 1014.4
20260509031605 59 0 0.0 0.0 0.00 0.02 0.00 92 1014.4
20260509024105 59 0 0.0 0.0 0.00 0.02 0.00 91 1014.4
20260509023604 59 324 0.0 0.0 0.00 0.02 0.00 91 1014.4
20260509020604 59 0 0.0 0.0 0.00 0.02 0.00 91 1014.4
20260509014605 60 0 0.0 0.0 0.00 0.02 0.00 91 1014.4
20260509014105 60 0 0.0 0.0 0.00 0.02 0.00 91 1014.4
20260509013604 60 0 0.0 0.0 0.00 0.02 0.00 91 1014.5
20260509011604 60 0 0.0 0.0 0.00 0.02 0.00 91 1014.6
20260509011104 60 0 0.0 0.0 0.00 0.02 0.00 91 1014.6
20260509010104 60 0 0.0 0.9 0.00 0.02 0.00 91 1015.1
20260509003104 60 282 0.0 0.0 0.00 0.02 0.00 91 1015.1
20260509001104 60 0 0.0 0.0 0.00 0.02 0.00 91 1015.1
20260509000605 60 284 0.0 0.0 0.00 0.02 0.00 91 1015.1
20260509000105 60 283 0.0 0.0 0.00 0.02 0.00 91 1015.1